Regional Weather Roundup
Issued by NWS

Home | Current Version | Previous Version | Graphics & Text | Print | Product List | Glossary On
Versions: 1 2 3 4 5 6 7 8 9 10 11 12 13 14 15 16 17 18 19 20 21 22 23 24 25 26 27 28 29 30 31 32 33 34 35 36 37 38 39 40 41 42 43 44 45 46 47 48 49 50
000
ASUS43 KOAX 300502
RWRNE

WEATHER ROUNDUP FOR NEBRASKA
NATIONAL WEATHER SERVICE OMAHA NE
1200 AM CDT MON MAR 30 2015

NOTES: SATELLITE DATA IS BEING USED TO AUGMENT CLOUD COVER ABOVE
       12000 FEET.
       "FAIR" INDICATES FEW OR NO CLOUDS BELOW 12,000 FEET WITH NO
       SIGNIFICANT WEATHER AND/OR OBSTRUCTIONS TO VISIBILITY.

  * THESE STATIONS DO NOT REPORT WEATHER SUCH AS RAIN...SNOW OR FOG.

NEZ001>004-019>022-054>056-300600-
NEBRASKA PANHANDLE

CITY           SKY/WX    TMP DP  RH WIND       PRES   REMARKS
SCOTTSBLUFF    PTCLDY    39  24  55 E8        30.10F WCI  33
ALLIANCE       PTCLDY    43  24  47 S9        30.09S
CHADRON        PTCLDY    36  25  64 SW5       30.06F WCI  32
KIMBALL        PTCLDY    40  22  48 CALM      30.13S
SIDNEY         CLEAR     40  24  53 S10       30.14F WCI  33
$$

NEZ057>060-069>072-079>082-300600-
SOUTHWEST NEBRASKA

CITY           SKY/WX    TMP DP  RH WIND       PRES   REMARKS
NORTH PLATTE   CLEAR     35  27  72 CALM      30.14F
MCCOOK         CLEAR     45  16  31 S6        30.17S
$$

NEZ005>010-023>029-035>040-094-300600-
NORTH CENTRAL NEBRASKA

CITY           SKY/WX    TMP DP  RH WIND       PRES   REMARKS
VALENTINE      MOCLDY    40  23  50 SW12      30.07F WCI  33
BROKEN BOW     PTCLDY    29  14  53 CALM      30.13S
O`NEILL        CLOUDY    41  26  55 SW7       30.09F
ORD            MOCLDY    31  15  52 SW5       30.11F WCI  26
$$

NEZ041-046>049-061>064-073>077-083>087-300600-
SOUTH CENTRAL NEBRASKA

CITY           SKY/WX    TMP DP  RH WIND       PRES   REMARKS
GRAND ISLAND   CLEAR     38  22  52 S8        30.15F WCI  32
HASTINGS       CLEAR     39  19  44 CALM      30.15F
HEBRON         PTCLDY    34  25  69 CALM      30.17F
KEARNEY *      CLEAR     45  16  31 SW6       30.15F
YORK           PTCLDY    34  21  60 SW7       30.15F WCI  28
$$

NEZ011>018-030>034-042>045-300600-
NORTHEAST NEBRASKA

CITY           SKY/WX    TMP DP  RH WIND       PRES   REMARKS
NORFOLK        CLEAR     37  25  61 S8        30.10F WCI  31
COLUMBUS *     CLEAR     32  19  59 NW5       30.14F WCI  27
TEKAMAH        CLEAR     37  19  48 W7G30     30.11F WCI  32
$$

NEZ050>053-065>068-078-088>093-300600-
SOUTHEAST NEBRASKA

CITY           SKY/WX    TMP DP  RH WIND       PRES   REMARKS
LINCOLN        CLEAR     37  24  59 CALM      30.15F
OMAHA EPPLEY   CLEAR     38  28  67 SE3       30.12F
FALLS CITY     CLEAR     43  27  53 W6        30.15S
NEBRASKA CITY  CLEAR     43  22  43 W9        30.14S
PLATTSMOUTH    CLEAR     46  17  31 W5        30.13F
$$

NEZ044-045-051>053-067-300600-
OMAHA AREA

CITY           SKY/WX    TMP DP  RH WIND       PRES   REMARKS
OMAHA EPPLEY   CLEAR     38  28  67 SE3       30.12F
MILLARD        CLEAR     40  29  65 CALM      30.13S
OFFUTT AFB     CLEAR     40  23  50 W2        30.12S
PLATTSMOUTH    CLEAR     46  17  31 W5        30.13F
WAHOO          FAIR      42  23  46 W5        30.12F
$$



USA.gov is the U.S. government's official web portal to all federal, state and local government web resources and services.